Change the Weather History Date:

Friday, August 23, 2013

  Actual Average Record
Temperature  
Mean Temperature 82 °F 76 °F  
Max Temperature 92 °F 87 °F 104 °F (1936)
Min Temperature 71 °F 66 °F 48 °F (1891)
Degree Days  
Heating Degree Days 0 0  
Month to date heating degree days 0 0  
Since 1 June heating degree days 17 9  
Since 1 July heating degree days 0 0  
Cooling Degree Days 17 11  
Month to date cooling degree days 205 292  
Year to date cooling degree days 953 1088  
Since 1 June cooling degree days 848 972  
Growing Degree Days 31 (Base 50)    
Moisture  
Dew Point 66 °F    
Average Humidity 64    
Maximum Humidity 90    
Minimum Humidity 38    
Precipitation  
Precipitation 0.00 in 0.14 in 5.93 in (1906)
Month to date precipitation 2.12 2.81  
Year to date precipitation 22.67 26.32  
Snow  
Snow 0.00 in 0.00 in 0.00 in ()
Month to date snowfall 0.0 0.0  
Since 1 June snowfall 0.0 0.0  
Since 1 July snowfall 0.0 0.0  
Snow Depth 0.00 in    
Sea Level Pressure  
Sea Level Pressure 30.04 in    
Wind  
Wind Speed 6 mph (SSE)    
Max Wind Speed 14 mph    
Max Gust Speed 21 mph    
Visibility 10 miles    
Events      
T = Trace of Precipitation, MM = Missing Value Source: NWS Daily Summary

Daily Weather History Graph

Daily Weather History Graph

Search for Another Location

Airport or City:

Trip Planner

Search our weather history database for the weather conditions in past years. The results will help you decide how hot, cold, wet, or windy it might be!

Date:

Astronomy

Aug. 23, 2013 Rise Set
Actual Time 6:39 AM CDT 8:02 PM CDT
Civil Twilight 6:11 AM CDT 8:30 PM CDT
Nautical Twilight 5:37 AM CDT 9:04 PM CDT
Astronomical Twilight 5:02 AM CDT 9:39 PM CDT
Moon 9:23 PM CDT (8/23) 9:34 AM CDT (8/23)
Length of Visible Light 14h 19m
Length of Day
13h 23m
Waning Gibbous, 91% of the Moon is Illuminated
Aug 23
Waning Gibbous
Aug 28
Last Quarter
Sep 5
New
Sep 12
First Quarter
Sep 19
Full

Hourly Weather History & Observations

Time (CDT) Temp. Heat Index Dew Point Humidity Pressure Visibility Wind Dir Wind Speed Gust Speed Precip Events Conditions
12:53 AM 73.0 °F - 66.9 °F 81% 30.04 in 10.0 mi SSE 6.9 mph - N/A   Clear
1:53 AM 73.0 °F - 66.9 °F 81% 30.04 in 10.0 mi SSE 4.6 mph - N/A   Partly Cloudy
2:53 AM 72.0 °F - 68.0 °F 87% 30.04 in 10.0 mi SSE 4.6 mph - N/A   Scattered Clouds
3:53 AM 73.0 °F - 68.0 °F 84% 30.05 in 10.0 mi SSE 3.5 mph - N/A   Scattered Clouds
4:53 AM 72.0 °F - 68.0 °F 87% 30.04 in 10.0 mi South 4.6 mph - N/A   Scattered Clouds
5:53 AM 73.0 °F - 68.0 °F 84% 30.05 in 10.0 mi Calm Calm - N/A   Scattered Clouds
6:53 AM 73.9 °F - 66.9 °F 79% 30.06 in 10.0 mi Calm Calm - N/A   Scattered Clouds
7:53 AM 73.9 °F - 69.1 °F 85% 30.07 in 10.0 mi Calm Calm - N/A   Mostly Cloudy
8:53 AM 78.1 °F - 70.0 °F 76% 30.07 in 7.0 mi South 3.5 mph - N/A   Mostly Cloudy
9:53 AM 82.0 °F 86.3 °F 71.1 °F 69% 30.08 in 9.0 mi SSW 3.5 mph - N/A   Mostly Cloudy
10:53 AM 82.9 °F 86.5 °F 69.1 °F 63% 30.08 in 10.0 mi SSW 4.6 mph - N/A   Mostly Cloudy
11:53 AM 87.1 °F 91.3 °F 69.1 °F 55% 30.07 in 9.0 mi SSE 5.8 mph - N/A   Mostly Cloudy
12:53 PM 88.0 °F 91.4 °F 68.0 °F 51% 30.05 in 10.0 mi SSW 8.1 mph - N/A   Mostly Cloudy
1:53 PM 89.1 °F 91.0 °F 64.9 °F 45% 30.03 in 10.0 mi SE 11.5 mph - N/A   Mostly Cloudy
2:53 PM 91.9 °F 92.9 °F 63.0 °F 38% 30.01 in 10.0 mi SSE 13.8 mph - N/A   Mostly Cloudy
3:53 PM 91.0 °F 91.5 °F 62.1 °F 38% 30.00 in 10.0 mi SE 10.4 mph 18.4 mph N/A   Mostly Cloudy
4:53 PM 90.0 °F 90.0 °F 61.0 °F 38% 29.99 in 10.0 mi SSE 12.7 mph - N/A   Mostly Cloudy
5:53 PM 89.1 °F 90.0 °F 63.0 °F 42% 29.99 in 10.0 mi SSE 9.2 mph - N/A   Mostly Cloudy
6:53 PM 84.9 °F 86.6 °F 64.9 °F 51% 30.00 in 10.0 mi SSE 6.9 mph - N/A   Mostly Cloudy
7:53 PM 82.0 °F 83.8 °F 64.9 °F 56% 30.00 in 10.0 mi SSE 5.8 mph - N/A   Mostly Cloudy
8:53 PM 79.0 °F - 64.9 °F 62% 30.01 in 10.0 mi SSE 5.8 mph - N/A   Mostly Cloudy
9:53 PM 77.0 °F - 64.0 °F 64% 30.02 in 10.0 mi SE 6.9 mph - N/A   Mostly Cloudy
10:53 PM 75.9 °F - 64.0 °F 67% 30.02 in 10.0 mi SSE 5.8 mph - N/A   Mostly Cloudy
11:53 PM 73.9 °F - 64.9 °F 73% 30.02 in 10.0 mi SE 6.9 mph - N/A   Scattered Clouds